Location: Vista Encantada
(35.1109°N, 106.5681°W)
Time: 09:18:51
(UTC+00:00)

Cosmos 1892 Rocket - Pass Details

Date: 29 October 2020
Orbit: 607 x 632 km, 82.5° (Epoch: 05 December)

Event Time Altitude Azimuth Distance (km) Brightness Sun altitude
Rises 12:15:29 0° 205° (SSW) 2,852 6.8 -14.8°
Reaches altitude 10° 12:17:49 10° 213° (SSW) 1,955 5.9 -14.3°
Maximum altitude 12:21:49 36° 281° (W) 972 4.0 -13.5°
Drops below altitude 10° 12:25:52 10° 348° (NNW) 1,980 6.0 -12.7°
Sets 12:28:15 0° 357° (N) 2,894 6.9 -12.2°
